TOM96E EGCC-LEPA

Flight info

Callsign TOM96E
Flight time 2h 5m
Altitude 37000
Route LISTO P18 TELBA L151 KIDLI UN859 SOPIL DCT BALAN DCT EVPOK DCT NARAK DCT GAI DCT LOMRA DCT ROCAN DCT IBRAP DCT LUKEV DCT LORES
Aircraft B738/M-SDE2E3FGHIRWXY/LB1

Departure

Time 2026-05-05 09:06
Airport Manchester Airport (EGCC)

Arrival

Time 2026-05-05 11:11
Airport Palma de Mallorca Airport (LEPA)
Time Latitude Longitude Altitude Speed Heading
2026-05-05 08:21 53.36547 -2.28565 246 ft 0 kts 45°
2026-05-05 08:49 53.36546 -2.28567 246 ft 1 kts 45°
2026-05-05 08:50 53.36508 -2.28636 246 ft 3 kts 135°
2026-05-05 08:50 53.36514 -2.28646 246 ft 0 kts 135°
2026-05-05 08:52 53.36492 -2.28610 246 ft 8 kts 135°
2026-05-05 08:53 53.36456 -2.28549 246 ft 7 kts 135°
2026-05-05 08:53 53.36414 -2.28493 246 ft 9 kts 153°
2026-05-05 08:53 53.36349 -2.28469 246 ft 12 kts 163°
2026-05-05 08:53 53.36269 -2.28343 246 ft 21 kts 136°
2026-05-05 08:54 53.36156 -2.28153 246 ft 23 kts 134°
2026-05-05 08:54 53.36046 -2.27966 246 ft 22 kts 136°
2026-05-05 08:54 53.35918 -2.27846 246 ft 22 kts 182°
2026-05-05 08:54 53.35803 -2.27711 246 ft 21 kts 128°
2026-05-05 08:55 53.35678 -2.27603 246 ft 20 kts 149°
2026-05-05 08:55 53.35587 -2.27477 253 ft 13 kts 142°
2026-05-05 08:55 53.35582 -2.27470 254 ft 0 kts 142°
2026-05-05 09:02 53.35531 -2.27402 259 ft 19 kts 142°
2026-05-05 09:02 53.35439 -2.27370 259 ft 17 kts 222°
2026-05-05 09:02 53.35330 -2.27596 256 ft 29 kts 238°
2026-05-05 09:02 53.35249 -2.27926 244 ft 31 kts 265°
2026-05-05 09:03 53.35246 -2.28209 236 ft 18 kts 292°
2026-05-05 09:03 53.35202 -2.28362 232 ft 16 kts 231°
2026-05-05 09:03 53.35126 -2.28519 230 ft 18 kts 231°
2026-05-05 09:03 53.35044 -2.28688 231 ft 21 kts 227°
2026-05-05 09:04 53.34938 -2.28875 227 ft 23 kts 226°
2026-05-05 09:04 53.34823 -2.29075 216 ft 25 kts 228°
2026-05-05 09:04 53.34717 -2.29294 215 ft 23 kts 221°
2026-05-05 09:04 53.34569 -2.29291 208 ft 23 kts 157°
2026-05-05 09:05 53.34553 -2.29199 211 ft 6 kts 59°
2026-05-05 09:05 53.34587 -2.29127 209 ft 23 kts 49°
2026-05-05 09:05 53.34839 -2.28603 233 ft 92 kts 51°
2026-05-05 09:05 53.35377 -2.27492 258 ft 151 kts 51°
2026-05-05 09:06 53.36110 -2.25965 577 ft 180 kts 51°
2026-05-05 09:06 53.36907 -2.24237 1232 ft 189 kts 52°
2026-05-05 09:06 53.37613 -2.22375 1880 ft 204 kts 74°
2026-05-05 09:06 53.37485 -2.19931 2102 ft 227 kts 119°
2026-05-05 09:07 53.36332 -2.18088 2562 ft 237 kts 149°
2026-05-05 09:07 53.34856 -2.16687 2990 ft 254 kts 159°
2026-05-05 09:07 53.33115 -2.16430 3634 ft 261 kts 190°
2026-05-05 09:07 53.31321 -2.16969 4427 ft 265 kts 189°
2026-05-05 09:08 53.29481 -2.17393 4859 ft 267 kts 187°
2026-05-05 09:08 53.27633 -2.17754 4985 ft 270 kts 187°
2026-05-05 09:08 53.25758 -2.18088 5023 ft 272 kts 186°
2026-05-05 09:08 53.23859 -2.18398 5554 ft 275 kts 186°
2026-05-05 09:09 53.21966 -2.18700 6459 ft 273 kts 186°
2026-05-05 09:09 53.20064 -2.18933 7252 ft 276 kts 178°
2026-05-05 09:09 53.18196 -2.18133 7989 ft 279 kts 162°
2026-05-05 09:09 53.16276 -2.17855 8673 ft 282 kts 194°
2026-05-05 09:10 53.14461 -2.18987 9421 ft 283 kts 202°
2026-05-05 09:10 53.12557 -2.19913 10100 ft 288 kts 191°
2026-05-05 09:10 53.10531 -2.20232 10436 ft 307 kts 178°
2026-05-05 09:10 53.08328 -2.19861 10620 ft 329 kts 172°
2026-05-05 09:11 53.05989 -2.19253 10793 ft 350 kts 171°
2026-05-05 09:11 53.03512 -2.18573 10954 ft 370 kts 171°
2026-05-05 09:11 53.00922 -2.17882 11325 ft 381 kts 171°
2026-05-05 09:11 52.98288 -2.17211 11919 ft 385 kts 172°
2026-05-05 09:12 52.95631 -2.16563 12559 ft 387 kts 172°
2026-05-05 09:12 52.92954 -2.15929 13197 ft 390 kts 172°
2026-05-05 09:12 52.90251 -2.15302 13827 ft 394 kts 172°
2026-05-05 09:12 52.87519 -2.14676 14459 ft 397 kts 172°
2026-05-05 09:13 52.84773 -2.14049 15075 ft 401 kts 172°
2026-05-05 09:13 52.81996 -2.13418 15702 ft 404 kts 172°
2026-05-05 09:13 52.79227 -2.12789 16304 ft 407 kts 172°
2026-05-05 09:13 52.76399 -2.12147 16885 ft 411 kts 172°
2026-05-05 09:14 52.73551 -2.11502 17438 ft 415 kts 172°
2026-05-05 09:14 52.70681 -2.10852 17985 ft 418 kts 172°
2026-05-05 09:14 52.67787 -2.10197 18519 ft 421 kts 172°
2026-05-05 09:14 52.64864 -2.09537 19037 ft 425 kts 172°
2026-05-05 09:15 52.61922 -2.08873 19540 ft 428 kts 172°
2026-05-05 09:15 52.58957 -2.08205 20030 ft 431 kts 172°
2026-05-05 09:15 52.55971 -2.07533 20512 ft 434 kts 172°
2026-05-05 09:15 52.52966 -2.06858 20973 ft 437 kts 172°
2026-05-05 09:16 52.49968 -2.06185 21410 ft 440 kts 172°
2026-05-05 09:16 52.46916 -2.05501 21835 ft 443 kts 172°
2026-05-05 09:16 52.43859 -2.04754 22255 ft 446 kts 168°
2026-05-05 09:16 52.40867 -2.03315 22644 ft 449 kts 159°
2026-05-05 09:17 52.38047 -2.01089 23033 ft 452 kts 149°
2026-05-05 09:17 52.35421 -1.98222 23413 ft 454 kts 145°
2026-05-05 09:17 52.32814 -1.95271 23789 ft 457 kts 146°
2026-05-05 09:17 52.30212 -1.92385 24149 ft 459 kts 146°
2026-05-05 09:18 52.27546 -1.89488 24508 ft 462 kts 147°
2026-05-05 09:18 52.24855 -1.86601 24835 ft 464 kts 147°
2026-05-05 09:18 52.22148 -1.83714 25170 ft 466 kts 147°
2026-05-05 09:18 52.19416 -1.80805 25495 ft 468 kts 147°
2026-05-05 09:19 52.16683 -1.77895 25790 ft 471 kts 147°
2026-05-05 09:19 52.13930 -1.74962 26097 ft 472 kts 147°
2026-05-05 09:19 52.11173 -1.72030 26383 ft 475 kts 147°
2026-05-05 09:19 52.08393 -1.69082 26649 ft 477 kts 147°
2026-05-05 09:20 52.05636 -1.66173 26906 ft 479 kts 147°
2026-05-05 09:20 52.02799 -1.63201 27227 ft 479 kts 147°
2026-05-05 09:20 52.00943 -1.61256 27487 ft 478 kts 147°
2026-05-05 09:20 51.97272 -1.57362 28032 ft 476 kts 147°
2026-05-05 09:21 51.95397 -1.55365 28282 ft 476 kts 147°
2026-05-05 09:21 51.92633 -1.52424 28610 ft 476 kts 147°
2026-05-05 09:21 51.88961 -1.48533 29090 ft 475 kts 147°
2026-05-05 09:21 51.86201 -1.45623 29494 ft 473 kts 147°
2026-05-05 09:22 51.84338 -1.43668 29747 ft 472 kts 147°
2026-05-05 09:22 51.81581 -1.40784 30091 ft 472 kts 147°
2026-05-05 09:22 51.78825 -1.37916 30430 ft 471 kts 148°
2026-05-05 09:22 51.75922 -1.35433 30763 ft 470 kts 158°
2026-05-05 09:23 51.72869 -1.33762 31098 ft 469 kts 164°
2026-05-05 09:23 51.69735 -1.32316 31431 ft 468 kts 164°
2026-05-05 09:23 51.66606 -1.30817 31727 ft 468 kts 163°
2026-05-05 09:23 51.63488 -1.29262 32046 ft 467 kts 162°
2026-05-05 09:24 51.60392 -1.27685 32366 ft 466 kts 162°
2026-05-05 09:24 51.57298 -1.26103 32659 ft 466 kts 162°
2026-05-05 09:24 51.54208 -1.24530 32931 ft 466 kts 162°
2026-05-05 09:24 51.51117 -1.22966 33212 ft 466 kts 162°
2026-05-05 09:25 51.48042 -1.21297 33501 ft 465 kts 158°
2026-05-05 09:25 51.45106 -1.19179 33796 ft 464 kts 154°
2026-05-05 09:25 51.42192 -1.16902 34086 ft 463 kts 154°
2026-05-05 09:25 51.39301 -1.14682 34341 ft 463 kts 155°
2026-05-05 09:26 51.36364 -1.12494 34593 ft 463 kts 155°
2026-05-05 09:26 51.33455 -1.10371 34848 ft 462 kts 156°
2026-05-05 09:26 51.30552 -1.08261 35119 ft 461 kts 155°
2026-05-05 09:26 51.27637 -1.06137 35372 ft 461 kts 155°
2026-05-05 09:27 51.24712 -1.04003 35587 ft 461 kts 155°
2026-05-05 09:27 51.21806 -1.01886 35804 ft 460 kts 155°
2026-05-05 09:27 51.18883 -0.99763 36032 ft 460 kts 155°
2026-05-05 09:27 51.15981 -0.97657 36246 ft 460 kts 155°
2026-05-05 09:28 51.13061 -0.95542 36470 ft 459 kts 156°
2026-05-05 09:28 51.10163 -0.93444 36654 ft 459 kts 156°
2026-05-05 09:28 51.07240 -0.91331 36835 ft 460 kts 156°
2026-05-05 09:28 51.04376 -0.89263 37003 ft 460 kts 156°
2026-05-05 09:29 51.01391 -0.87110 36988 ft 463 kts 156°
2026-05-05 09:29 50.95587 -0.82934 36992 ft 460 kts 156°
2026-05-05 09:30 50.89776 -0.78762 36999 ft 457 kts 156°
2026-05-05 09:30 50.84047 -0.74427 36994 ft 455 kts 149°
2026-05-05 09:31 50.78728 -0.69025 36996 ft 454 kts 147°
2026-05-05 09:31 50.73460 -0.63516 37003 ft 454 kts 147°
2026-05-05 09:32 50.68188 -0.58097 37003 ft 455 kts 147°
2026-05-05 09:32 50.62864 -0.52700 37003 ft 456 kts 147°
2026-05-05 09:33 50.57513 -0.47305 37003 ft 457 kts 147°
2026-05-05 09:33 50.52132 -0.41894 37002 ft 459 kts 147°
2026-05-05 09:34 50.46737 -0.36481 37002 ft 460 kts 147°
2026-05-05 09:34 50.41338 -0.31078 37001 ft 461 kts 148°
2026-05-05 09:35 50.35954 -0.25705 37001 ft 461 kts 148°
2026-05-05 09:35 50.27816 -0.17610 37001 ft 461 kts 148°
2026-05-05 09:36 50.22402 -0.12243 37001 ft 461 kts 148°
2026-05-05 09:36 50.17016 -0.06916 37001 ft 461 kts 148°
2026-05-05 09:37 50.11589 -0.01607 36999 ft 460 kts 151°
2026-05-05 09:37 50.05640 0.01919 37008 ft 458 kts 166°
2026-05-05 09:38 49.99427 0.04239 36997 ft 458 kts 167°
2026-05-05 09:38 49.93224 0.06592 37001 ft 458 kts 166°
2026-05-05 09:39 49.87073 0.08985 37001 ft 458 kts 166°
2026-05-05 09:39 49.80890 0.11403 37001 ft 458 kts 166°
2026-05-05 09:40 49.74708 0.13812 37002 ft 458 kts 166°
2026-05-05 09:40 49.68518 0.16214 37002 ft 458 kts 166°
2026-05-05 09:41 49.62338 0.18685 36999 ft 458 kts 165°
2026-05-05 09:41 49.56171 0.21202 37002 ft 458 kts 165°
2026-05-05 09:42 49.50034 0.23691 37002 ft 459 kts 165°
2026-05-05 09:42 49.43853 0.26182 37002 ft 459 kts 165°
2026-05-05 09:43 49.37671 0.28665 36999 ft 459 kts 165°
2026-05-05 09:43 49.31473 0.31149 37002 ft 459 kts 166°
2026-05-05 09:44 49.25294 0.33704 37002 ft 459 kts 165°
2026-05-05 09:44 49.19171 0.36299 37002 ft 460 kts 165°
2026-05-05 09:45 49.13003 0.38900 37002 ft 460 kts 165°
2026-05-05 09:45 49.06832 0.41483 37001 ft 460 kts 165°
2026-05-05 09:46 49.00663 0.44055 37002 ft 460 kts 165°
2026-05-05 09:46 48.94486 0.46625 37002 ft 460 kts 165°
2026-05-05 09:47 48.88304 0.49191 37002 ft 460 kts 165°
2026-05-05 09:47 48.82110 0.51755 37000 ft 460 kts 165°
2026-05-05 09:48 48.75955 0.54265 37003 ft 461 kts 166°
2026-05-05 09:48 48.69747 0.56680 37000 ft 461 kts 166°
2026-05-05 09:49 48.63529 0.59090 37001 ft 461 kts 166°
2026-05-05 09:49 48.57314 0.61510 37002 ft 461 kts 166°
2026-05-05 09:50 48.51112 0.63926 37001 ft 461 kts 165°
2026-05-05 09:50 48.44913 0.66436 37002 ft 461 kts 165°
2026-05-05 09:51 48.38722 0.68969 37000 ft 460 kts 165°
2026-05-05 09:51 48.32538 0.71478 37002 ft 460 kts 165°
2026-05-05 09:52 48.26389 0.73960 37001 ft 460 kts 165°
2026-05-05 09:52 48.20204 0.76423 37002 ft 460 kts 165°
2026-05-05 09:53 48.14008 0.78854 37001 ft 460 kts 165°
2026-05-05 09:53 48.07820 0.81279 37002 ft 459 kts 165°
2026-05-05 09:54 48.01634 0.83702 37001 ft 459 kts 165°
2026-05-05 09:54 47.95442 0.86124 37001 ft 459 kts 165°
2026-05-05 09:55 47.89292 0.88523 37001 ft 459 kts 165°
2026-05-05 09:55 47.83109 0.90928 37002 ft 459 kts 166°
2026-05-05 09:56 47.76922 0.93324 37002 ft 459 kts 166°
2026-05-05 09:56 47.70731 0.95715 37000 ft 459 kts 166°
2026-05-05 09:57 47.64543 0.98100 37001 ft 460 kts 166°
2026-05-05 09:57 47.58369 1.00474 37001 ft 460 kts 166°
2026-05-05 09:58 47.52141 1.02445 37006 ft 459 kts 172°
2026-05-05 09:58 47.45860 1.03515 37000 ft 459 kts 174°
2026-05-05 09:59 47.39510 1.04513 37002 ft 459 kts 174°
2026-05-05 09:59 47.33152 1.05587 37003 ft 459 kts 173°
2026-05-05 10:00 47.26803 1.06708 37000 ft 459 kts 173°
2026-05-05 10:00 47.20464 1.07838 37001 ft 459 kts 173°
2026-05-05 10:01 47.14103 1.08970 36999 ft 459 kts 173°
2026-05-05 10:01 47.07791 1.10087 37004 ft 459 kts 173°
2026-05-05 10:02 47.01436 1.11209 37001 ft 459 kts 173°
2026-05-05 10:02 46.95074 1.12329 37001 ft 459 kts 173°
2026-05-05 10:03 46.88764 1.13437 37001 ft 459 kts 173°
2026-05-05 10:03 46.82415 1.14549 37003 ft 459 kts 173°
2026-05-05 10:04 46.76060 1.15660 37001 ft 459 kts 173°
2026-05-05 10:04 46.69712 1.16767 37002 ft 459 kts 173°
2026-05-05 10:05 46.63363 1.17872 37003 ft 459 kts 173°
2026-05-05 10:05 46.57012 1.18974 37000 ft 459 kts 173°
2026-05-05 10:06 46.50663 1.20073 37001 ft 459 kts 173°
2026-05-05 10:06 46.44353 1.21163 37000 ft 459 kts 173°
2026-05-05 10:07 46.38003 1.22257 37002 ft 460 kts 173°
2026-05-05 10:07 46.31650 1.23350 37001 ft 460 kts 173°
2026-05-05 10:08 46.25293 1.24440 37001 ft 460 kts 173°
2026-05-05 10:08 46.18939 1.25527 37002 ft 460 kts 173°
2026-05-05 10:09 46.13649 1.26431 37000 ft 460 kts 173°
2026-05-05 10:09 46.07281 1.27516 37002 ft 461 kts 173°
2026-05-05 10:10 46.00939 1.28594 37001 ft 461 kts 173°
2026-05-05 10:10 45.94559 1.29676 36999 ft 461 kts 173°
2026-05-05 10:11 45.88174 1.30757 37004 ft 462 kts 173°
2026-05-05 10:11 45.81790 1.31835 37000 ft 462 kts 173°
2026-05-05 10:12 45.75415 1.32909 37002 ft 462 kts 173°
2026-05-05 10:12 45.69033 1.33981 37001 ft 461 kts 173°
2026-05-05 10:13 45.62653 1.35051 37000 ft 461 kts 173°
2026-05-05 10:13 45.56309 1.36113 37001 ft 461 kts 173°
2026-05-05 10:14 45.49916 1.37180 37005 ft 461 kts 173°
2026-05-05 10:14 45.43614 1.38613 37008 ft 461 kts 168°
2026-05-05 10:15 45.37361 1.40688 37000 ft 461 kts 167°
2026-05-05 10:15 45.31108 1.42805 37003 ft 461 kts 167°
2026-05-05 10:16 45.24844 1.44857 37002 ft 461 kts 167°
2026-05-05 10:16 45.18620 1.46854 37001 ft 460 kts 167°
2026-05-05 10:17 45.12371 1.48846 36999 ft 460 kts 167°
2026-05-05 10:17 45.06110 1.50839 37000 ft 460 kts 167°
2026-05-05 10:18 44.99904 1.52812 37004 ft 460 kts 167°
2026-05-05 10:18 44.93662 1.54792 37001 ft 460 kts 167°
2026-05-05 10:19 44.87412 1.56771 37003 ft 460 kts 167°
2026-05-05 10:19 44.81157 1.58746 36999 ft 460 kts 167°
2026-05-05 10:20 44.74907 1.60716 37001 ft 460 kts 167°
2026-05-05 10:20 44.68654 1.62683 37000 ft 460 kts 167°
2026-05-05 10:21 44.62422 1.64638 37003 ft 461 kts 167°
2026-05-05 10:21 44.56155 1.66600 37002 ft 461 kts 167°
2026-05-05 10:22 44.49891 1.68557 37001 ft 461 kts 167°
2026-05-05 10:22 44.43617 1.70513 37004 ft 461 kts 167°
2026-05-05 10:23 44.37393 1.72450 37001 ft 461 kts 167°
2026-05-05 10:23 44.31122 1.74396 37001 ft 461 kts 168°
2026-05-05 10:24 44.24815 1.76066 37004 ft 461 kts 171°
2026-05-05 10:24 44.18460 1.77392 37003 ft 461 kts 172°
2026-05-05 10:25 44.12106 1.78736 36999 ft 461 kts 171°
2026-05-05 10:25 44.05762 1.80125 37001 ft 461 kts 171°
2026-05-05 10:26 43.99454 1.81512 37005 ft 461 kts 171°
2026-05-05 10:26 43.93117 1.82772 37000 ft 461 kts 175°
2026-05-05 10:27 43.86707 1.83403 37007 ft 460 kts 177°
2026-05-05 10:27 43.80301 1.83914 36999 ft 460 kts 176°
2026-05-05 10:28 43.73902 1.84489 37004 ft 460 kts 176°
2026-05-05 10:28 43.67556 1.85101 37000 ft 460 kts 176°
2026-05-05 10:29 43.61165 1.85723 36999 ft 460 kts 176°
2026-05-05 10:29 43.54777 1.86342 37003 ft 460 kts 176°
2026-05-05 10:30 43.48384 1.86957 37001 ft 460 kts 176°
2026-05-05 10:30 43.41997 1.87571 37001 ft 460 kts 176°
2026-05-05 10:31 43.35611 1.88184 37004 ft 460 kts 176°
2026-05-05 10:31 43.29263 1.88793 37000 ft 460 kts 176°
2026-05-05 10:32 43.22867 1.89409 37002 ft 460 kts 176°
2026-05-05 10:32 43.16460 1.90024 37001 ft 461 kts 176°
2026-05-05 10:33 43.10100 1.90633 37002 ft 461 kts 176°
2026-05-05 10:33 43.03697 1.91245 37000 ft 461 kts 176°
2026-05-05 10:34 42.97290 1.91856 37004 ft 461 kts 176°
2026-05-05 10:34 42.90898 1.92464 37000 ft 462 kts 176°
2026-05-05 10:35 42.84493 1.93073 36995 ft 463 kts 176°
2026-05-05 10:35 42.78078 1.93681 37003 ft 464 kts 176°
2026-05-05 10:36 42.71717 1.94283 37006 ft 467 kts 176°
2026-05-05 10:36 42.65341 1.95250 36989 ft 470 kts 166°
2026-05-05 10:37 42.59014 1.97579 37007 ft 472 kts 164°
2026-05-05 10:37 42.52693 1.99960 37005 ft 475 kts 165°
2026-05-05 10:38 42.46305 2.02279 37012 ft 475 kts 165°
2026-05-05 10:38 42.39907 2.04570 36991 ft 475 kts 165°
2026-05-05 10:39 42.33520 2.06855 36997 ft 475 kts 165°
2026-05-05 10:39 42.27128 2.09123 36992 ft 473 kts 165°
2026-05-05 10:40 42.20779 2.11370 36995 ft 470 kts 165°
2026-05-05 10:40 42.14504 2.13588 37000 ft 467 kts 165°
2026-05-05 10:41 42.08226 2.15804 37002 ft 465 kts 165°
2026-05-05 10:41 42.01966 2.18009 37001 ft 464 kts 165°
2026-05-05 10:42 41.92618 2.21293 37003 ft 462 kts 166°
2026-05-05 10:43 41.86403 2.23471 36998 ft 461 kts 166°
2026-05-05 10:43 41.80203 2.25641 37001 ft 460 kts 166°
2026-05-05 10:44 41.74042 2.27791 37005 ft 460 kts 166°
2026-05-05 10:44 41.67843 2.29954 37007 ft 461 kts 166°
2026-05-05 10:45 41.61641 2.32114 37000 ft 461 kts 166°
2026-05-05 10:45 41.55439 2.34271 36999 ft 461 kts 166°
2026-05-05 10:46 41.49234 2.36425 37008 ft 460 kts 166°
2026-05-05 10:46 41.43028 2.38574 36999 ft 460 kts 166°
2026-05-05 10:47 41.36831 2.40717 37001 ft 460 kts 166°
2026-05-05 10:47 41.30680 2.42839 36955 ft 460 kts 166°
2026-05-05 10:47 41.27554 2.43915 36418 ft 465 kts 166°
2026-05-05 10:48 41.24438 2.44988 35813 ft 462 kts 166°
2026-05-05 10:48 41.21319 2.46060 35122 ft 462 kts 166°
2026-05-05 10:48 41.18202 2.47131 34413 ft 463 kts 166°
2026-05-05 10:48 41.15084 2.48201 33691 ft 463 kts 166°
2026-05-05 10:49 41.11956 2.49273 32942 ft 464 kts 166°
2026-05-05 10:49 41.08826 2.50345 32167 ft 465 kts 166°
2026-05-05 10:49 41.05685 2.51419 31368 ft 466 kts 166°
2026-05-05 10:49 41.02543 2.52493 30543 ft 467 kts 166°
2026-05-05 10:50 40.99385 2.53572 29682 ft 468 kts 166°
2026-05-05 10:50 40.96263 2.54701 29178 ft 461 kts 163°
2026-05-05 10:50 40.93251 2.55961 28900 ft 453 kts 162°
2026-05-05 10:50 40.90226 2.57305 27933 ft 473 kts 161°
2026-05-05 10:51 40.87108 2.58720 26942 ft 475 kts 161°
2026-05-05 10:51 40.83979 2.60136 25925 ft 476 kts 161°
2026-05-05 10:51 40.80859 2.61533 25193 ft 470 kts 161°
2026-05-05 10:51 40.77779 2.62896 24449 ft 464 kts 162°
2026-05-05 10:52 40.74727 2.64235 23721 ft 459 kts 162°
2026-05-05 10:52 40.71718 2.65547 22977 ft 453 kts 162°
2026-05-05 10:52 40.68737 2.66843 22252 ft 448 kts 162°
2026-05-05 10:52 40.67737 2.67277 22009 ft 447 kts 162°
2026-05-05 10:54 40.65246 2.68357 21399 ft 442 kts 162°
2026-05-05 10:54 40.62340 2.69617 20685 ft 438 kts 162°
2026-05-05 10:55 40.59456 2.70867 19979 ft 433 kts 162°
2026-05-05 10:55 40.56611 2.72099 19270 ft 428 kts 162°
2026-05-05 10:55 40.53796 2.73317 18575 ft 424 kts 162°
2026-05-05 10:55 40.51006 2.74524 17876 ft 420 kts 162°
2026-05-05 10:56 40.48246 2.75716 17186 ft 415 kts 162°
2026-05-05 10:56 40.45513 2.76896 16498 ft 411 kts 162°
2026-05-05 10:56 40.42801 2.78066 15811 ft 407 kts 162°
2026-05-05 10:56 40.40149 2.79209 15147 ft 403 kts 162°
2026-05-05 10:57 40.39252 2.79596 14922 ft 402 kts 162°
2026-05-05 10:57 40.34862 2.81485 13807 ft 396 kts 162°
2026-05-05 10:57 40.32256 2.82605 13152 ft 392 kts 162°
2026-05-05 10:57 40.29674 2.83715 12488 ft 389 kts 162°
2026-05-05 10:58 40.27114 2.84813 11837 ft 385 kts 162°
2026-05-05 10:58 40.24578 2.85901 11185 ft 382 kts 162°
2026-05-05 10:58 40.22083 2.86971 10929 ft 368 kts 162°
2026-05-05 10:58 40.19699 2.87992 10759 ft 354 kts 162°
2026-05-05 10:59 40.17424 2.88966 10604 ft 341 kts 162°
2026-05-05 10:59 40.15213 2.89911 10461 ft 328 kts 162°
2026-05-05 10:59 40.13078 2.90824 10322 ft 317 kts 162°
2026-05-05 10:59 40.11010 2.91707 10190 ft 307 kts 162°
2026-05-05 11:00 40.09010 2.92561 10069 ft 297 kts 162°
2026-05-05 11:00 40.07066 2.93390 9860 ft 291 kts 162°
2026-05-05 11:00 40.05147 2.94208 9560 ft 289 kts 162°
2026-05-05 11:00 40.03267 2.95008 9270 ft 287 kts 162°
2026-05-05 11:01 40.01375 2.95814 8971 ft 285 kts 162°
2026-05-05 11:01 39.99492 2.96615 8658 ft 284 kts 162°
2026-05-05 11:01 39.98230 2.97152 8452 ft 283 kts 162°
2026-05-05 11:01 39.96389 2.97934 8149 ft 281 kts 162°
2026-05-05 11:02 39.94533 2.98723 7839 ft 280 kts 162°
2026-05-05 11:02 39.92681 2.99510 7537 ft 279 kts 162°
2026-05-05 11:02 39.90845 3.00289 7234 ft 278 kts 162°
2026-05-05 11:02 39.89016 3.01065 6943 ft 277 kts 162°
2026-05-05 11:03 39.87188 3.01840 6626 ft 276 kts 162°
2026-05-05 11:03 39.85361 3.02615 6331 ft 275 kts 162°
2026-05-05 11:03 39.83546 3.03383 6041 ft 274 kts 162°
2026-05-05 11:03 39.81738 3.04148 5750 ft 273 kts 162°
2026-05-05 11:04 39.79933 3.04912 5448 ft 272 kts 162°
2026-05-05 11:04 39.78139 3.05671 5161 ft 271 kts 162°
2026-05-05 11:04 39.76347 3.06428 4878 ft 270 kts 162°
2026-05-05 11:04 39.74596 3.07168 4764 ft 261 kts 162°
2026-05-05 11:05 39.72882 3.07868 4629 ft 254 kts 167°
2026-05-05 11:05 39.71176 3.07790 4506 ft 245 kts 202°
2026-05-05 11:05 39.69855 3.06537 4337 ft 238 kts 231°
2026-05-05 11:05 39.68931 3.04770 4147 ft 235 kts 239°
2026-05-05 11:06 39.68117 3.02951 3956 ft 231 kts 241°
2026-05-05 11:06 39.67332 3.01173 3762 ft 223 kts 240°
2026-05-05 11:06 39.66549 2.99476 3564 ft 216 kts 239°
2026-05-05 11:06 39.65784 2.97852 3394 ft 207 kts 239°
2026-05-05 11:07 39.65040 2.96281 3187 ft 200 kts 239°
2026-05-05 11:07 39.64329 2.94777 3033 ft 192 kts 239°
2026-05-05 11:07 39.63644 2.93332 2877 ft 186 kts 239°
2026-05-05 11:07 39.62972 2.91912 2778 ft 185 kts 239°
2026-05-05 11:08 39.62297 2.90481 2529 ft 187 kts 239°
2026-05-05 11:08 39.61626 2.89060 2313 ft 187 kts 238°
2026-05-05 11:08 39.60965 2.87667 2051 ft 178 kts 239°
2026-05-05 11:08 39.60343 2.86353 1834 ft 165 kts 239°
2026-05-05 11:09 39.59780 2.85157 1629 ft 150 kts 239°
2026-05-05 11:09 39.59256 2.84049 1412 ft 142 kts 238°
2026-05-05 11:09 39.58749 2.82951 1204 ft 144 kts 240°
2026-05-05 11:09 39.58229 2.81841 1086 ft 147 kts 238°
2026-05-05 11:10 39.57688 2.80706 928 ft 148 kts 238°
2026-05-05 11:10 39.57151 2.79571 677 ft 149 kts 239°
2026-05-05 11:10 39.56619 2.78441 440 ft 146 kts 239°
2026-05-05 11:10 39.56102 2.77344 256 ft 144 kts 239°
2026-05-05 11:11 39.55580 2.76238 87 ft 144 kts 239°
2026-05-05 11:11 39.55078 2.75182 29 ft 128 kts 238°
2026-05-05 11:11 39.54693 2.74367 29 ft 84 kts 238°
2026-05-05 11:11 39.54555 2.73951 29 ft 42 kts 264°
2026-05-05 11:12 39.54581 2.73740 29 ft 17 kts 347°
2026-05-05 11:12 39.54657 2.73846 29 ft 17 kts 59°
2026-05-05 11:12 39.54721 2.73956 29 ft 14 kts 18°
2026-05-05 11:12 39.54805 2.73977 29 ft 14 kts 51°
2026-05-05 11:13 39.54885 2.73974 29 ft 13 kts 324°
2026-05-05 11:13 39.54925 2.73912 29 ft 7 kts 252°
2026-05-05 11:13 39.54905 2.73847 29 ft 8 kts 248°
2026-05-05 11:13 39.54895 2.73813 29 ft 0 kts 249°